Location: Newark
(6.1731°S, 35.7419°E)
Time: 00:27:31
(UTC+00:00)

Transit 4A - Visible Passes

Search period start: 24 February 2020 00:00
Search period end: 05 March 2020 00:00
Orbit: 872 x 973 km, 66.8° (Epoch: 23 February)

Date Brightness Start Highest point End Pass type
(mag) Time Alt. Az. Time Alt. Az. Time Alt. Az.
28 Feb 9.7 17:39:07 10° SSE 17:40:52 17° SSE 17:40:52 17° SSE visible
29 Feb 9.2 17:47:38 10° S 17:50:42 27° SSE 17:50:42 27° SSE visible
01 Mar 8.6 17:56:35 10° SSW 18:00:40 43° S 18:00:40 43° S visible
02 Mar 8.4 18:05:55 10° SSW 18:10:48 54° SW 18:10:48 54° SW visible
03 Mar 9.3 16:31:04 10° SSE 16:35:05 18° ESE 16:37:30 14° E visible
03 Mar 9.0 18:15:38 10° SW 18:21:06 38° WNW 18:21:06 38° WNW visible
04 Mar 8.7 16:39:07 10° S 16:44:28 30° ESE 16:48:00 17° ENE visible
04 Mar 9.8 18:25:53 10° WSW 18:30:30 22° WNW 18:31:37 21° WNW visible
